Year,Month,Day,Hour,Minute,Value (Times are PST for temperature in C)
2014,06,24,00,00,14.70
2014,06,24,00,01,14.70
2014,06,24,00,02,14.70
2014,06,24,00,03,14.70
2014,06,24,00,04,14.70
2014,06,24,00,05,14.70
2014,06,24,00,06,14.70
2014,06,24,00,07,14.70
2014,06,24,00,08,14.70
2014,06,24,00,09,14.70
2014,06,24,00,10,14.70
2014,06,24,00,11,14.70
2014,06,24,00,12,14.70
2014,06,24,00,13,14.70
2014,06,24,00,14,14.70
2014,06,24,00,15,14.70
2014,06,24,00,16,14.70
2014,06,24,00,17,14.70
2014,06,24,00,18,14.70
2014,06,24,00,19,14.70
2014,06,24,00,20,14.70
2014,06,24,00,21,14.70
2014,06,24,00,22,14.70
2014,06,24,00,23,14.70
2014,06,24,00,24,14.70
2014,06,24,00,25,14.70
2014,06,24,00,26,14.70
2014,06,24,00,27,14.70
2014,06,24,00,28,14.70
2014,06,24,00,29,14.70
2014,06,24,00,30,14.70
2014,06,24,00,31,14.70
2014,06,24,00,32,14.70
2014,06,24,00,33,14.70
2014,06,24,00,34,14.70
2014,06,24,00,35,14.70
2014,06,24,00,36,14.70
2014,06,24,00,37,14.70
2014,06,24,00,38,14.70
2014,06,24,00,39,14.70
2014,06,24,00,40,14.70
2014,06,24,00,41,14.70
2014,06,24,00,42,14.70
2014,06,24,00,43,14.70
2014,06,24,00,44,14.70
2014,06,24,00,45,14.70
2014,06,24,00,46,14.70
2014,06,24,00,47,14.70
2014,06,24,00,48,14.70
2014,06,24,00,49,14.70
2014,06,24,00,50,14.70
2014,06,24,00,51,14.60
2014,06,24,00,52,14.70
2014,06,24,00,53,14.60
2014,06,24,00,54,14.60
2014,06,24,00,55,14.70
2014,06,24,00,56,14.70
2014,06,24,00,57,14.70
2014,06,24,00,58,14.70
2014,06,24,00,59,14.70
2014,06,24,01,00,14.70
2014,06,24,01,01,14.70
2014,06,24,01,02,14.70
2014,06,24,01,03,14.70
2014,06,24,01,04,14.70
2014,06,24,01,05,14.70
2014,06,24,01,06,14.70
2014,06,24,01,07,14.70
2014,06,24,01,08,14.60
2014,06,24,01,09,14.60
2014,06,24,01,10,14.60
2014,06,24,01,11,14.60
2014,06,24,01,12,14.60
2014,06,24,01,13,14.60
2014,06,24,01,14,14.70
2014,06,24,01,15,14.70
2014,06,24,01,16,14.70
2014,06,24,01,17,14.70
2014,06,24,01,18,14.70
2014,06,24,01,19,14.70
2014,06,24,01,20,14.60
2014,06,24,01,21,14.60
2014,06,24,01,22,14.60
2014,06,24,01,23,14.70
2014,06,24,01,24,14.70
2014,06,24,01,25,14.70
2014,06,24,01,26,14.70
2014,06,24,01,27,14.70
2014,06,24,01,28,14.70
2014,06,24,01,29,14.70
2014,06,24,01,30,14.70
2014,06,24,01,31,14.70
2014,06,24,01,32,14.70
2014,06,24,01,33,14.70
2014,06,24,01,34,14.70
2014,06,24,01,35,14.70
2014,06,24,01,36,14.80
2014,06,24,01,37,14.80
2014,06,24,01,38,14.80
2014,06,24,01,39,14.80
2014,06,24,01,40,14.80
2014,06,24,01,41,14.80
2014,06,24,01,42,14.80
2014,06,24,01,43,14.80
2014,06,24,01,44,14.80
2014,06,24,01,45,14.80
2014,06,24,01,46,14.80
2014,06,24,01,47,14.80
2014,06,24,01,48,14.70
2014,06,24,01,49,14.70
2014,06,24,01,50,14.70
2014,06,24,01,51,14.70
2014,06,24,01,52,14.70
2014,06,24,01,53,14.70
2014,06,24,01,54,14.70
2014,06,24,01,55,14.70
2014,06,24,01,56,14.70
2014,06,24,01,57,14.70
2014,06,24,01,58,14.70
2014,06,24,01,59,14.70
2014,06,24,02,00,14.70
2014,06,24,02,01,14.70
2014,06,24,02,02,14.70
2014,06,24,02,03,14.70
2014,06,24,02,04,14.70
2014,06,24,02,05,14.70
2014,06,24,02,06,14.70
2014,06,24,02,07,14.70
2014,06,24,02,08,14.70
2014,06,24,02,09,14.70
2014,06,24,02,10,14.70
2014,06,24,02,11,14.70
2014,06,24,02,12,14.70
2014,06,24,02,13,14.70
2014,06,24,02,14,14.70
2014,06,24,02,15,14.70
2014,06,24,02,16,14.70
2014,06,24,02,17,14.70
2014,06,24,02,18,14.70
2014,06,24,02,19,14.70
2014,06,24,02,20,14.70
2014,06,24,02,21,14.70
2014,06,24,02,22,14.70
2014,06,24,02,23,14.70
2014,06,24,02,24,14.70
2014,06,24,02,25,14.70
2014,06,24,02,26,14.70
2014,06,24,02,27,14.70
2014,06,24,02,28,14.70
2014,06,24,02,29,14.70
2014,06,24,02,30,14.70
2014,06,24,02,31,14.70
2014,06,24,02,32,14.70
2014,06,24,02,33,14.70
2014,06,24,02,34,14.60
2014,06,24,02,35,14.70
2014,06,24,02,36,14.70
2014,06,24,02,37,14.70
2014,06,24,02,38,14.70
2014,06,24,02,39,14.70
2014,06,24,02,40,14.70
2014,06,24,02,41,14.60
2014,06,24,02,42,14.60
2014,06,24,02,43,14.70
2014,06,24,02,44,14.70
2014,06,24,02,45,14.70
2014,06,24,02,46,14.70
2014,06,24,02,47,14.70
2014,06,24,02,48,14.70
2014,06,24,02,49,14.70
2014,06,24,02,50,14.60
2014,06,24,02,51,14.60
2014,06,24,02,52,14.60
2014,06,24,02,53,14.60
2014,06,24,02,54,14.60
2014,06,24,02,55,14.60
2014,06,24,02,56,14.60
2014,06,24,02,57,14.60
2014,06,24,02,58,14.60
2014,06,24,02,59,14.60
2014,06,24,03,00,14.60
2014,06,24,03,01,14.60
2014,06,24,03,02,14.60
2014,06,24,03,03,14.60
2014,06,24,03,04,14.60
2014,06,24,03,05,14.60
2014,06,24,03,06,14.60
2014,06,24,03,07,14.60
2014,06,24,03,08,14.60
2014,06,24,03,09,14.60
2014,06,24,03,10,14.60
2014,06,24,03,11,14.60
2014,06,24,03,12,14.70
2014,06,24,03,13,14.60
2014,06,24,03,14,14.60
2014,06,24,03,15,14.60
2014,06,24,03,16,14.60
2014,06,24,03,17,14.60
2014,06,24,03,18,14.60
2014,06,24,03,19,14.60
2014,06,24,03,20,14.60
2014,06,24,03,21,14.60
2014,06,24,03,22,14.60
2014,06,24,03,23,14.60
2014,06,24,03,24,14.60
2014,06,24,03,25,14.60
2014,06,24,03,26,14.60
2014,06,24,03,27,14.60
2014,06,24,03,28,14.60
2014,06,24,03,29,14.50
2014,06,24,03,30,14.50
2014,06,24,03,31,14.50
2014,06,24,03,32,14.50
2014,06,24,03,33,14.50
2014,06,24,03,34,14.50
2014,06,24,03,35,14.40
2014,06,24,03,36,14.40
2014,06,24,03,37,14.40
2014,06,24,03,38,14.40
2014,06,24,03,39,14.40
2014,06,24,03,40,14.40
2014,06,24,03,41,14.40
2014,06,24,03,42,14.40
2014,06,24,03,43,14.40
2014,06,24,03,44,14.40
2014,06,24,03,45,14.30
2014,06,24,03,46,14.30
2014,06,24,03,47,14.30
2014,06,24,03,48,14.30
2014,06,24,03,49,14.30
2014,06,24,03,50,14.30
2014,06,24,03,51,14.30
2014,06,24,03,52,14.30
2014,06,24,03,53,14.20
2014,06,24,03,54,14.20
2014,06,24,03,55,14.20
2014,06,24,03,56,14.20
2014,06,24,03,57,14.20
2014,06,24,03,58,14.20
2014,06,24,03,59,14.20
2014,06,24,04,00,14.20
2014,06,24,04,01,14.20
2014,06,24,04,02,14.20
2014,06,24,04,03,14.20
2014,06,24,04,04,14.20
2014,06,24,04,05,14.20
2014,06,24,04,06,14.20
2014,06,24,04,07,14.20
2014,06,24,04,08,14.20
2014,06,24,04,09,14.20
2014,06,24,04,10,14.20
2014,06,24,04,11,14.20
2014,06,24,04,12,14.20
2014,06,24,04,13,14.20
2014,06,24,04,14,14.20
2014,06,24,04,15,14.20
2014,06,24,04,16,14.20
2014,06,24,04,17,14.20
2014,06,24,04,18,14.20
2014,06,24,04,19,14.10
2014,06,24,04,20,14.10
2014,06,24,04,21,14.10
2014,06,24,04,22,14.10
2014,06,24,04,23,14.10
2014,06,24,04,24,14.10
2014,06,24,04,25,14.10
2014,06,24,04,26,14.10
2014,06,24,04,27,14.10
2014,06,24,04,28,14.10
2014,06,24,04,29,14.10
2014,06,24,04,30,14.10
2014,06,24,04,31,14.10
2014,06,24,04,32,14.10
2014,06,24,04,33,14.10
2014,06,24,04,34,14.10
2014,06,24,04,35,14.10
2014,06,24,04,36,14.10
2014,06,24,04,37,14.10
2014,06,24,04,38,14.10
2014,06,24,04,39,14.10
2014,06,24,04,40,14.10
2014,06,24,04,41,14.10
2014,06,24,04,42,14.00
2014,06,24,04,43,14.00
2014,06,24,04,44,14.00
2014,06,24,04,45,14.00
2014,06,24,04,46,14.00
2014,06,24,04,47,13.90
2014,06,24,04,48,13.90
2014,06,24,04,49,13.90
2014,06,24,04,50,13.90
2014,06,24,04,51,13.90
2014,06,24,04,52,13.90
2014,06,24,04,53,13.90
2014,06,24,04,54,13.90
2014,06,24,04,55,13.90
2014,06,24,04,56,13.90
2014,06,24,04,57,13.90
2014,06,24,04,58,13.80
2014,06,24,04,59,13.80
2014,06,24,05,00,13.80
2014,06,24,05,01,13.80
2014,06,24,05,02,13.80
2014,06,24,05,03,13.80
2014,06,24,05,04,13.80
2014,06,24,05,05,13.80
2014,06,24,05,06,13.80
2014,06,24,05,07,13.80
2014,06,24,05,08,13.80
2014,06,24,05,09,13.90
2014,06,24,05,10,13.90
2014,06,24,05,11,13.90
2014,06,24,05,12,13.90
2014,06,24,05,13,13.90
2014,06,24,05,14,13.90
2014,06,24,05,15,13.90
2014,06,24,05,16,13.90
2014,06,24,05,17,13.90
2014,06,24,05,18,13.90
2014,06,24,05,19,13.90
2014,06,24,05,20,13.90
2014,06,24,05,21,13.90
2014,06,24,05,22,13.90
2014,06,24,05,23,13.90
2014,06,24,05,24,13.90
2014,06,24,05,25,13.90
2014,06,24,05,26,13.90
2014,06,24,05,27,13.90
2014,06,24,05,28,13.90
2014,06,24,05,29,14.00
2014,06,24,05,30,14.00
2014,06,24,05,31,13.90
2014,06,24,05,32,14.00
2014,06,24,05,33,13.90
2014,06,24,05,34,13.90
2014,06,24,05,35,13.90
2014,06,24,05,36,13.90
2014,06,24,05,37,13.90
2014,06,24,05,38,13.90
2014,06,24,05,39,13.90
2014,06,24,05,40,13.90
2014,06,24,05,41,13.90
2014,06,24,05,42,13.90
2014,06,24,05,43,13.90
2014,06,24,05,44,14.00
2014,06,24,05,45,14.00
2014,06,24,05,46,14.00
2014,06,24,05,47,14.00
2014,06,24,05,48,14.00
2014,06,24,05,49,14.00
2014,06,24,05,50,14.00
2014,06,24,05,51,14.10
2014,06,24,05,52,14.10
2014,06,24,05,53,14.10
2014,06,24,05,54,14.10
2014,06,24,05,55,14.10
2014,06,24,05,56,14.10
2014,06,24,05,57,14.10
2014,06,24,05,58,14.10
2014,06,24,05,59,14.10
2014,06,24,06,00,14.10
2014,06,24,06,01,14.10
2014,06,24,06,02,14.20
2014,06,24,06,03,14.20
2014,06,24,06,04,14.20
2014,06,24,06,05,14.20
2014,06,24,06,06,14.20
2014,06,24,06,07,14.20
2014,06,24,06,08,14.20
2014,06,24,06,09,14.20
2014,06,24,06,10,14.20
2014,06,24,06,11,14.20
2014,06,24,06,12,14.20
2014,06,24,06,13,14.20
2014,06,24,06,14,14.20
2014,06,24,06,15,14.20
2014,06,24,06,16,14.20
2014,06,24,06,17,14.20
2014,06,24,06,18,14.20
2014,06,24,06,19,14.20
2014,06,24,06,20,14.20
2014,06,24,06,21,14.20
2014,06,24,06,22,14.20
2014,06,24,06,23,14.20
2014,06,24,06,24,14.30
2014,06,24,06,25,14.30
2014,06,24,06,26,14.30
2014,06,24,06,27,14.30
2014,06,24,06,28,14.30
2014,06,24,06,29,14.30
2014,06,24,06,30,14.40
2014,06,24,06,31,14.40
2014,06,24,06,32,14.40
2014,06,24,06,33,14.50
2014,06,24,06,34,14.50
2014,06,24,06,35,14.60
2014,06,24,06,36,14.60
2014,06,24,06,37,14.70
2014,06,24,06,38,14.70
2014,06,24,06,39,14.80
2014,06,24,06,40,14.80
2014,06,24,06,41,14.80
2014,06,24,06,42,14.80
2014,06,24,06,43,14.80
2014,06,24,06,44,14.80
2014,06,24,06,45,14.90
2014,06,24,06,46,14.90
2014,06,24,06,47,14.90
2014,06,24,06,48,14.90
2014,06,24,06,49,15.00
2014,06,24,06,50,15.00
2014,06,24,06,51,15.00
2014,06,24,06,52,15.00
2014,06,24,06,53,15.00
2014,06,24,06,54,15.00
2014,06,24,06,55,15.00
2014,06,24,06,56,15.00
2014,06,24,06,57,15.00
2014,06,24,06,58,15.00
2014,06,24,06,59,14.90
2014,06,24,07,00,14.90
2014,06,24,07,01,14.90
2014,06,24,07,02,14.80
2014,06,24,07,03,14.90
2014,06,24,07,04,14.80
2014,06,24,07,05,14.80
2014,06,24,07,06,14.90
2014,06,24,07,07,14.90
2014,06,24,07,08,14.90
2014,06,24,07,09,14.90
2014,06,24,07,10,14.90
2014,06,24,07,11,14.90
2014,06,24,07,12,14.90
2014,06,24,07,13,14.90
2014,06,24,07,14,14.90
2014,06,24,07,15,14.90
2014,06,24,07,16,15.00
2014,06,24,07,17,15.00
2014,06,24,07,18,15.00
2014,06,24,07,19,15.00
2014,06,24,07,20,15.10
2014,06,24,07,21,15.10
2014,06,24,07,22,15.10
2014,06,24,07,23,15.10
2014,06,24,07,24,15.10
2014,06,24,07,25,15.10
2014,06,24,07,26,15.10
2014,06,24,07,27,15.10
2014,06,24,07,28,15.10
2014,06,24,07,29,15.10
2014,06,24,07,30,15.10
2014,06,24,07,31,15.10
2014,06,24,07,32,15.10
2014,06,24,07,33,15.10
2014,06,24,07,34,15.10
2014,06,24,07,35,15.10
2014,06,24,07,36,15.10
2014,06,24,07,37,15.10
2014,06,24,07,38,15.10
2014,06,24,07,39,15.20
2014,06,24,07,40,15.20
2014,06,24,07,41,15.20
2014,06,24,07,42,15.20
2014,06,24,07,43,15.10
2014,06,24,07,44,15.10
2014,06,24,07,45,15.10
2014,06,24,07,46,15.10
2014,06,24,07,47,15.10
2014,06,24,07,48,15.10
2014,06,24,07,49,15.10
2014,06,24,07,50,15.10
2014,06,24,07,51,15.20
2014,06,24,07,52,15.20
2014,06,24,07,53,15.20
2014,06,24,07,54,15.20
2014,06,24,07,55,15.20
2014,06,24,07,56,15.20
2014,06,24,07,57,15.20
2014,06,24,07,58,15.30
2014,06,24,07,59,15.30
2014,06,24,08,00,15.30
2014,06,24,08,01,15.30
2014,06,24,08,02,15.30
2014,06,24,08,03,15.40
2014,06,24,08,04,15.40
2014,06,24,08,05,15.40
2014,06,24,08,06,15.40
2014,06,24,08,07,15.40
2014,06,24,08,08,15.40
2014,06,24,08,09,15.40
2014,06,24,08,10,15.40
2014,06,24,08,11,15.40
2014,06,24,08,12,15.40
2014,06,24,08,13,15.40
2014,06,24,08,14,15.40
2014,06,24,08,15,15.40
2014,06,24,08,16,15.40
2014,06,24,08,17,15.40
2014,06,24,08,18,15.50
2014,06,24,08,19,15.50
2014,06,24,08,20,15.60
2014,06,24,08,21,15.60
2014,06,24,08,22,15.60
2014,06,24,08,23,15.60
2014,06,24,08,24,15.60
2014,06,24,08,25,15.60
2014,06,24,08,26,15.60
2014,06,24,08,27,15.60
2014,06,24,08,28,15.60
2014,06,24,08,29,15.70
2014,06,24,08,30,15.70
2014,06,24,08,31,15.70
2014,06,24,08,32,15.70
2014,06,24,08,33,15.70
2014,06,24,08,34,15.60
2014,06,24,08,35,15.60
2014,06,24,08,36,15.50
2014,06,24,08,37,15.50
2014,06,24,08,38,15.50
2014,06,24,08,39,15.50
2014,06,24,08,40,15.50
2014,06,24,08,41,15.50
2014,06,24,08,42,15.50
2014,06,24,08,43,15.50
2014,06,24,08,44,15.60
2014,06,24,08,45,15.60
2014,06,24,08,46,15.60
2014,06,24,08,47,15.60
2014,06,24,08,48,15.60
2014,06,24,08,49,15.70
2014,06,24,08,50,15.70
2014,06,24,08,51,15.70
2014,06,24,08,52,15.80
2014,06,24,08,53,15.80
2014,06,24,08,54,15.80
2014,06,24,08,55,15.80
2014,06,24,08,56,15.80
2014,06,24,08,57,15.80
2014,06,24,08,58,15.80
2014,06,24,08,59,15.90
2014,06,24,09,00,15.90
2014,06,24,09,01,15.90
2014,06,24,09,02,16.00
2014,06,24,09,03,16.00
2014,06,24,09,04,16.00
2014,06,24,09,05,16.10
2014,06,24,09,06,16.00
2014,06,24,09,07,16.00
2014,06,24,09,08,16.10
2014,06,24,09,09,16.10
2014,06,24,09,10,16.10
2014,06,24,09,11,16.10
2014,06,24,09,12,16.10
2014,06,24,09,13,16.10
2014,06,24,09,14,16.10
2014,06,24,09,15,16.10
2014,06,24,09,16,16.10
2014,06,24,09,17,16.10
2014,06,24,09,18,16.10
2014,06,24,09,19,16.20
2014,06,24,09,20,16.20
2014,06,24,09,21,16.20
2014,06,24,09,22,16.30
2014,06,24,09,23,16.30
2014,06,24,09,24,16.30
2014,06,24,09,25,16.30
2014,06,24,09,26,16.40
2014,06,24,09,27,16.40
2014,06,24,09,28,16.40
2014,06,24,09,29,16.50
2014,06,24,09,30,16.50
2014,06,24,09,31,16.60
2014,06,24,09,32,16.60
2014,06,24,09,33,16.70
2014,06,24,09,34,16.70
2014,06,24,09,35,16.70
2014,06,24,09,36,16.70
2014,06,24,09,37,16.70
2014,06,24,09,38,16.70
2014,06,24,09,39,16.70
2014,06,24,09,40,16.70
2014,06,24,09,41,16.70
2014,06,24,09,42,16.70
2014,06,24,09,43,16.70
2014,06,24,09,44,16.70
2014,06,24,09,45,16.70
2014,06,24,09,46,16.70
2014,06,24,09,47,16.70
2014,06,24,09,48,16.70
2014,06,24,09,49,16.70
2014,06,24,09,50,16.70
2014,06,24,09,51,16.70
2014,06,24,09,52,16.70
2014,06,24,09,53,16.70
2014,06,24,09,54,16.70
2014,06,24,09,55,16.70
2014,06,24,09,56,16.80
2014,06,24,09,57,16.80
2014,06,24,09,58,16.90
2014,06,24,09,59,16.90
2014,06,24,10,00,17.00
2014,06,24,10,01,17.00
2014,06,24,10,02,17.00
2014,06,24,10,03,17.10
2014,06,24,10,04,17.10
2014,06,24,10,05,17.10
2014,06,24,10,06,17.00
2014,06,24,10,07,17.00
2014,06,24,10,08,17.00
2014,06,24,10,09,17.00
2014,06,24,10,10,17.00
2014,06,24,10,11,17.00
2014,06,24,10,12,17.10
2014,06,24,10,13,17.10
2014,06,24,10,14,17.10
2014,06,24,10,15,17.20
2014,06,24,10,16,17.20
2014,06,24,10,17,17.20
2014,06,24,10,18,17.20
2014,06,24,10,19,17.30
2014,06,24,10,20,17.30
2014,06,24,10,21,17.30
2014,06,24,10,22,17.30
2014,06,24,10,23,17.30
2014,06,24,10,24,17.30
2014,06,24,10,25,17.40
2014,06,24,10,26,17.40
2014,06,24,10,27,17.40
2014,06,24,10,28,17.40
2014,06,24,10,29,17.40
2014,06,24,10,30,17.40
2014,06,24,10,31,17.40
2014,06,24,10,32,17.40
2014,06,24,10,33,17.40
2014,06,24,10,34,17.40
2014,06,24,10,35,17.50
2014,06,24,10,36,17.50
2014,06,24,10,37,17.50
2014,06,24,10,38,17.50
2014,06,24,10,39,17.50
2014,06,24,10,40,17.50
2014,06,24,10,41,17.60
2014,06,24,10,42,17.60
2014,06,24,10,43,17.60
2014,06,24,10,44,17.60
2014,06,24,10,45,17.70
2014,06,24,10,46,17.70
2014,06,24,10,47,17.70
2014,06,24,10,48,17.70
2014,06,24,10,49,17.70
2014,06,24,10,50,17.80
2014,06,24,10,51,17.80
2014,06,24,10,52,17.80
2014,06,24,10,53,17.90
2014,06,24,10,54,18.00
2014,06,24,10,55,18.00
2014,06,24,10,56,18.00
2014,06,24,10,57,18.10
2014,06,24,10,58,18.10
2014,06,24,10,59,18.20
2014,06,24,11,00,18.30
2014,06,24,11,01,18.40
2014,06,24,11,02,18.40
2014,06,24,11,03,18.40
2014,06,24,11,04,18.40
2014,06,24,11,05,18.40
2014,06,24,11,06,18.50
2014,06,24,11,07,18.50
2014,06,24,11,08,18.60
2014,06,24,11,09,18.70
2014,06,24,11,10,18.80
2014,06,24,11,11,18.80
2014,06,24,11,12,18.80
2014,06,24,11,13,18.80
2014,06,24,11,14,18.70
2014,06,24,11,15,18.70
2014,06,24,11,16,18.70
2014,06,24,11,17,18.70
2014,06,24,11,18,18.70
2014,06,24,11,19,18.70
2014,06,24,11,20,18.60
2014,06,24,11,21,18.60
2014,06,24,11,22,18.50
2014,06,24,11,23,18.40
2014,06,24,11,24,18.30
2014,06,24,11,25,18.30
2014,06,24,11,26,18.30
2014,06,24,11,27,18.30
2014,06,24,11,28,18.30
2014,06,24,11,29,18.20
2014,06,24,11,30,18.20
2014,06,24,11,31,18.30
2014,06,24,11,32,18.30
2014,06,24,11,33,18.40
2014,06,24,11,34,18.50
2014,06,24,11,35,18.60
2014,06,24,11,36,18.70
2014,06,24,11,37,18.70
2014,06,24,11,38,18.80
2014,06,24,11,39,18.80
2014,06,24,11,40,18.90
2014,06,24,11,41,18.90
2014,06,24,11,42,18.80
2014,06,24,11,43,18.80
2014,06,24,11,44,18.70
2014,06,24,11,45,18.60
2014,06,24,11,46,18.60
2014,06,24,11,47,18.60
2014,06,24,11,48,18.60
2014,06,24,11,49,18.70
2014,06,24,11,50,18.70
2014,06,24,11,51,18.80
2014,06,24,11,52,18.80
2014,06,24,11,53,18.80
2014,06,24,11,54,18.80
2014,06,24,11,55,18.90
2014,06,24,11,56,18.90
2014,06,24,11,57,18.80
2014,06,24,11,58,18.80
2014,06,24,11,59,18.80
2014,06,24,12,00,18.80
2014,06,24,12,01,18.80
2014,06,24,12,02,18.80
2014,06,24,12,03,18.80
2014,06,24,12,04,18.80
2014,06,24,12,05,18.80
2014,06,24,12,06,18.70
2014,06,24,12,07,18.70
2014,06,24,12,08,18.70
2014,06,24,12,09,18.70
2014,06,24,12,10,18.70
2014,06,24,12,11,18.70
2014,06,24,12,12,18.70
2014,06,24,12,13,18.80
2014,06,24,12,14,18.90
2014,06,24,12,15,19.00
2014,06,24,12,16,19.10
2014,06,24,12,17,19.20
2014,06,24,12,18,19.30
2014,06,24,12,19,19.40
2014,06,24,12,20,19.40
2014,06,24,12,21,19.40
2014,06,24,12,22,19.40
2014,06,24,12,23,19.40
2014,06,24,12,24,19.40
2014,06,24,12,25,19.40
2014,06,24,12,26,19.40
2014,06,24,12,27,19.40
2014,06,24,12,28,19.20
2014,06,24,12,29,19.20
2014,06,24,12,30,19.20
2014,06,24,12,31,19.10
2014,06,24,12,32,19.20
2014,06,24,12,33,19.20
2014,06,24,12,34,19.20
2014,06,24,12,35,19.30
2014,06,24,12,36,19.40
2014,06,24,12,37,19.40
2014,06,24,12,38,19.50
2014,06,24,12,39,19.50
2014,06,24,12,40,19.60
2014,06,24,12,41,19.60
2014,06,24,12,42,19.70
2014,06,24,12,43,19.80
2014,06,24,12,44,19.80
2014,06,24,12,45,19.90
2014,06,24,12,46,19.90
2014,06,24,12,47,19.90
2014,06,24,12,48,19.90
2014,06,24,12,49,19.90
2014,06,24,12,50,19.90
2014,06,24,12,51,19.90
2014,06,24,12,52,19.90
2014,06,24,12,53,19.90
2014,06,24,12,54,19.90
2014,06,24,12,55,19.90
2014,06,24,12,56,19.90
2014,06,24,12,57,19.90
2014,06,24,12,58,19.90
2014,06,24,12,59,20.00
2014,06,24,13,00,20.10
2014,06,24,13,01,20.10
2014,06,24,13,02,20.20
2014,06,24,13,03,20.20
2014,06,24,13,04,20.20
2014,06,24,13,05,20.20
2014,06,24,13,06,20.10
2014,06,24,13,07,20.00
2014,06,24,13,08,20.00
2014,06,24,13,09,19.90
2014,06,24,13,10,19.90
2014,06,24,13,11,19.90
2014,06,24,13,12,19.80
2014,06,24,13,13,19.80
2014,06,24,13,14,19.80
2014,06,24,13,15,19.80
2014,06,24,13,16,19.90
2014,06,24,13,17,20.00
2014,06,24,13,18,20.10
2014,06,24,13,19,20.20
2014,06,24,13,20,20.20
2014,06,24,13,21,20.20
2014,06,24,13,22,20.30
2014,06,24,13,23,20.40
2014,06,24,13,24,20.50
2014,06,24,13,25,20.50
2014,06,24,13,26,20.50
2014,06,24,13,27,20.60
2014,06,24,13,28,20.50
2014,06,24,13,29,20.50
2014,06,24,13,30,20.40
2014,06,24,13,31,20.40
2014,06,24,13,32,20.40
2014,06,24,13,33,20.30
2014,06,24,13,34,20.20
2014,06,24,13,35,20.10
2014,06,24,13,36,20.10
2014,06,24,13,37,20.10
2014,06,24,13,38,20.10
2014,06,24,13,39,20.10
2014,06,24,13,40,20.20
2014,06,24,13,41,20.20
2014,06,24,13,42,20.20
2014,06,24,13,43,20.20
2014,06,24,13,44,20.20
2014,06,24,13,45,20.30
2014,06,24,13,46,20.30
2014,06,24,13,47,20.30
2014,06,24,13,48,20.40
2014,06,24,13,49,20.40
2014,06,24,13,50,20.40
2014,06,24,13,51,20.50
2014,06,24,13,52,20.50
2014,06,24,13,53,20.60
2014,06,24,13,54,20.60
2014,06,24,13,55,20.60
2014,06,24,13,56,20.70
2014,06,24,13,57,20.70
2014,06,24,13,58,20.70
2014,06,24,13,59,20.70
2014,06,24,14,00,20.80
2014,06,24,14,01,20.90
2014,06,24,14,02,20.90
2014,06,24,14,03,20.90
2014,06,24,14,04,21.00
2014,06,24,14,05,21.10
2014,06,24,14,06,21.10
2014,06,24,14,07,21.20
2014,06,24,14,08,21.20
2014,06,24,14,09,21.30
2014,06,24,14,10,21.30
2014,06,24,14,11,21.40
2014,06,24,14,12,21.40
2014,06,24,14,13,21.50
2014,06,24,14,14,21.50
2014,06,24,14,15,21.60
2014,06,24,14,16,21.60
2014,06,24,14,17,21.60
2014,06,24,14,18,21.70
2014,06,24,14,19,21.80
2014,06,24,14,20,21.90
2014,06,24,14,21,21.90
2014,06,24,14,22,21.80
2014,06,24,14,23,21.50
2014,06,24,14,24,21.40
2014,06,24,14,25,21.30
2014,06,24,14,26,21.30
2014,06,24,14,27,21.30
2014,06,24,14,28,21.30
2014,06,24,14,29,21.20
2014,06,24,14,30,21.20
2014,06,24,14,31,21.20
2014,06,24,14,32,21.20
2014,06,24,14,33,21.30
2014,06,24,14,34,21.40
2014,06,24,14,35,21.40
2014,06,24,14,36,21.40
2014,06,24,14,37,21.40
2014,06,24,14,38,21.40
2014,06,24,14,39,21.40
2014,06,24,14,40,21.40
2014,06,24,14,41,21.40
2014,06,24,14,42,21.40
2014,06,24,14,43,21.40
2014,06,24,14,44,21.40
2014,06,24,14,45,21.50
2014,06,24,14,46,21.50
2014,06,24,14,47,21.50
2014,06,24,14,48,21.60
2014,06,24,14,49,21.60
2014,06,24,14,50,21.50
2014,06,24,14,51,21.50
2014,06,24,14,52,21.50
2014,06,24,14,53,21.50
2014,06,24,14,54,21.40
2014,06,24,14,55,21.40
2014,06,24,14,56,21.40
2014,06,24,14,57,21.30
2014,06,24,14,58,21.10
2014,06,24,14,59,21.00
2014,06,24,15,00,21.00
2014,06,24,15,01,21.10
2014,06,24,15,02,21.10
2014,06,24,15,03,21.00
2014,06,24,15,04,20.90
2014,06,24,15,05,20.80
2014,06,24,15,06,20.80
2014,06,24,15,07,20.70
2014,06,24,15,08,20.70
2014,06,24,15,09,20.70
2014,06,24,15,10,20.60
2014,06,24,15,11,20.60
2014,06,24,15,12,20.40
2014,06,24,15,13,20.30
2014,06,24,15,14,20.20
2014,06,24,15,15,20.00
2014,06,24,15,16,19.90
2014,06,24,15,17,19.80
2014,06,24,15,18,19.80
2014,06,24,15,19,19.70
2014,06,24,15,20,19.70
2014,06,24,15,21,19.70
2014,06,24,15,22,19.70
2014,06,24,15,23,19.60
2014,06,24,15,24,19.50
2014,06,24,15,25,19.40
2014,06,24,15,26,19.30
2014,06,24,15,27,19.30
2014,06,24,15,28,19.20
2014,06,24,15,29,19.20
2014,06,24,15,30,19.20
2014,06,24,15,31,19.30
2014,06,24,15,32,19.30
2014,06,24,15,33,19.40
2014,06,24,15,34,19.40
2014,06,24,15,35,19.50
2014,06,24,15,36,19.40
2014,06,24,15,37,19.20
2014,06,24,15,38,19.10
2014,06,24,15,39,19.00
2014,06,24,15,40,18.90
2014,06,24,15,41,18.80
2014,06,24,15,42,18.70
2014,06,24,15,43,18.50
2014,06,24,15,44,18.40
2014,06,24,15,45,18.30
2014,06,24,15,46,18.30
2014,06,24,15,47,18.30
2014,06,24,15,48,18.30
2014,06,24,15,49,18.30
2014,06,24,15,50,18.40
2014,06,24,15,51,18.50
2014,06,24,15,52,18.60
2014,06,24,15,53,18.50
2014,06,24,15,54,18.50
2014,06,24,15,55,18.50
2014,06,24,15,56,18.50
2014,06,24,15,57,18.50
2014,06,24,15,58,18.60
2014,06,24,15,59,18.70
2014,06,24,16,00,18.70
2014,06,24,16,01,18.70
2014,06,24,16,02,18.70
2014,06,24,16,03,18.60
2014,06,24,16,04,18.60
2014,06,24,16,05,18.60
2014,06,24,16,06,18.60
2014,06,24,16,07,18.60
2014,06,24,16,08,18.60
2014,06,24,16,09,18.60
2014,06,24,16,10,18.50
2014,06,24,16,11,18.40
2014,06,24,16,12,18.30
2014,06,24,16,13,18.30
2014,06,24,16,14,18.20
2014,06,24,16,15,18.20
2014,06,24,16,16,18.20
2014,06,24,16,17,18.20
2014,06,24,16,18,18.30
2014,06,24,16,19,18.30
2014,06,24,16,20,18.40
2014,06,24,16,21,18.40
2014,06,24,16,22,18.40
2014,06,24,16,23,18.30
2014,06,24,16,24,18.30
2014,06,24,16,25,18.30
2014,06,24,16,26,18.30
2014,06,24,16,27,18.30
2014,06,24,16,28,18.30
2014,06,24,16,29,18.30
2014,06,24,16,30,18.30
2014,06,24,16,31,18.30
2014,06,24,16,32,18.30
2014,06,24,16,33,18.20
2014,06,24,16,34,18.20
2014,06,24,16,35,18.20
2014,06,24,16,36,18.20
2014,06,24,16,37,18.20
2014,06,24,16,38,18.20
2014,06,24,16,39,18.20
2014,06,24,16,40,18.20
2014,06,24,16,41,18.30
2014,06,24,16,42,18.30
2014,06,24,16,43,18.30
2014,06,24,16,44,18.30
2014,06,24,16,45,18.40
2014,06,24,16,46,18.40
2014,06,24,16,47,18.40
2014,06,24,16,48,18.40
2014,06,24,16,49,18.50
2014,06,24,16,50,18.50
2014,06,24,16,51,18.50
2014,06,24,16,52,18.60
2014,06,24,16,53,18.60
2014,06,24,16,54,18.70
2014,06,24,16,55,18.70
2014,06,24,16,56,18.70
2014,06,24,16,57,18.70
2014,06,24,16,58,18.70
2014,06,24,16,59,18.70
2014,06,24,17,00,18.80
2014,06,24,17,01,18.80
2014,06,24,17,02,18.90
2014,06,24,17,03,18.90
2014,06,24,17,04,18.90
2014,06,24,17,05,18.90
2014,06,24,17,06,18.90
2014,06,24,17,07,18.90
2014,06,24,17,08,18.90
2014,06,24,17,09,18.90
2014,06,24,17,10,18.90
2014,06,24,17,11,19.00
2014,06,24,17,12,19.00
2014,06,24,17,13,19.10
2014,06,24,17,14,19.10
2014,06,24,17,15,19.10
2014,06,24,17,16,19.10
2014,06,24,17,17,19.20
2014,06,24,17,18,19.20
2014,06,24,17,19,19.10